EZY85KR EGKK-LFRN

Flight info

Callsign EZY85KR
Flight time 0h 48m
Altitude 28000
Route IMVUR N63 SAM M195 MARUK N621 LELNA DCT DOMOK UT260 UPALO
Aircraft A319/M-SDE3FGHIRWY/LB1

Departure

Time 2026-05-06 12:03
Airport London Gatwick Airport (EGKK)

Arrival

Time 2026-05-06 12:51
Airport Rennes-Saint-Jacques Airport (LFRN)
Time Latitude Longitude Altitude Speed Heading
2026-05-06 11:00 51.15659 -0.17695 197 ft 0 kts 168°
2026-05-06 11:48 51.15665 -0.17697 198 ft 0 kts 167°
2026-05-06 11:48 51.15664 -0.17697 197 ft 0 kts 167°
2026-05-06 11:50 51.15679 -0.17702 198 ft 3 kts 167°
2026-05-06 11:50 51.15705 -0.17707 198 ft 3 kts 192°
2026-05-06 11:50 51.15723 -0.17682 198 ft 3 kts 246°
2026-05-06 11:50 51.15726 -0.17666 197 ft 0 kts 265°
2026-05-06 11:52 51.15726 -0.17669 197 ft 0 kts 265°
2026-05-06 11:52 51.15725 -0.17688 197 ft 2 kts 265°
2026-05-06 11:53 51.15723 -0.17724 197 ft 3 kts 265°
2026-05-06 11:53 51.15720 -0.17774 197 ft 5 kts 264°
2026-05-06 11:53 51.15713 -0.17837 197 ft 6 kts 259°
2026-05-06 11:53 51.15703 -0.17912 197 ft 7 kts 258°
2026-05-06 11:54 51.15691 -0.18000 197 ft 8 kts 258°
2026-05-06 11:54 51.15678 -0.18099 197 ft 9 kts 257°
2026-05-06 11:54 51.15670 -0.18152 197 ft 10 kts 257°
2026-05-06 11:54 51.15633 -0.18242 197 ft 11 kts 193°
2026-05-06 11:55 51.15560 -0.18292 197 ft 11 kts 212°
2026-05-06 11:55 51.15482 -0.18311 197 ft 12 kts 167°
2026-05-06 11:55 51.15394 -0.18279 197 ft 13 kts 167°
2026-05-06 11:55 51.15302 -0.18248 197 ft 14 kts 174°
2026-05-06 11:56 51.15205 -0.18234 197 ft 14 kts 209°
2026-05-06 11:56 51.15170 -0.18380 197 ft 15 kts 261°
2026-05-06 11:56 51.15149 -0.18548 197 ft 15 kts 256°
2026-05-06 11:56 51.15123 -0.18718 197 ft 15 kts 264°
2026-05-06 11:57 51.15104 -0.18898 197 ft 16 kts 258°
2026-05-06 11:57 51.15082 -0.19082 197 ft 17 kts 259°
2026-05-06 11:57 51.15047 -0.19248 197 ft 12 kts 219°
2026-05-06 11:57 51.14972 -0.19281 197 ft 9 kts 227°
2026-05-06 11:58 51.14944 -0.19378 197 ft 10 kts 256°
2026-05-06 11:58 51.14931 -0.19495 197 ft 11 kts 264°
2026-05-06 11:58 51.14916 -0.19623 197 ft 12 kts 252°
2026-05-06 11:58 51.14889 -0.19785 197 ft 17 kts 260°
2026-05-06 11:59 51.14869 -0.19979 197 ft 18 kts 260°
2026-05-06 11:59 51.14846 -0.20181 197 ft 18 kts 259°
2026-05-06 11:59 51.14819 -0.20368 197 ft 15 kts 249°
2026-05-06 11:59 51.14796 -0.20406 197 ft 0 kts 202°
2026-05-06 12:00 51.14793 -0.20408 197 ft 0 kts 206°
2026-05-06 12:00 51.14788 -0.20420 197 ft 2 kts 245°
2026-05-06 12:00 51.14782 -0.20473 197 ft 6 kts 264°
2026-05-06 12:00 51.14783 -0.20555 197 ft 9 kts 271°
2026-05-06 12:01 51.14776 -0.20677 197 ft 13 kts 254°
2026-05-06 12:01 51.14748 -0.20836 198 ft 16 kts 259°
2026-05-06 12:01 51.14722 -0.21029 197 ft 19 kts 258°
2026-05-06 12:01 51.14698 -0.21252 198 ft 18 kts 260°
2026-05-06 12:02 51.14624 -0.21337 197 ft 17 kts 159°
2026-05-06 12:02 51.14518 -0.21226 197 ft 19 kts 122°
2026-05-06 12:02 51.14538 -0.21011 197 ft 21 kts 74°
2026-05-06 12:02 51.14581 -0.20709 198 ft 51 kts 78°
2026-05-06 12:03 51.14716 -0.19735 198 ft 125 kts 79°
2026-05-06 12:03 51.14921 -0.18106 414 ft 163 kts 75°
2026-05-06 12:03 51.15143 -0.16377 1199 ft 160 kts 73°
2026-05-06 12:03 51.15374 -0.14702 1990 ft 159 kts 72°
2026-05-06 12:04 51.15626 -0.12916 2573 ft 174 kts 72°
2026-05-06 12:04 51.15909 -0.10916 2927 ft 203 kts 73°
2026-05-06 12:04 51.16240 -0.08556 2935 ft 229 kts 72°
2026-05-06 12:04 51.17005 -0.06200 3030 ft 255 kts 39°
2026-05-06 12:05 51.18578 -0.05072 3908 ft 251 kts
2026-05-06 12:05 51.20160 -0.05383 4859 ft 226 kts 342°
2026-05-06 12:05 51.21563 -0.06573 5506 ft 240 kts 316°
2026-05-06 12:05 51.22501 -0.08792 5885 ft 250 kts 289°
2026-05-06 12:06 51.22630 -0.11569 6060 ft 258 kts 265°
2026-05-06 12:06 51.22298 -0.14453 6589 ft 270 kts 262°
2026-05-06 12:06 51.21941 -0.17337 7769 ft 264 kts 262°
2026-05-06 12:06 51.21602 -0.20129 8822 ft 262 kts 262°
2026-05-06 12:07 51.21268 -0.22960 9781 ft 263 kts 261°
2026-05-06 12:07 51.20938 -0.25801 10713 ft 265 kts 260°
2026-05-06 12:07 51.20602 -0.28696 11627 ft 266 kts 259°
2026-05-06 12:07 51.20271 -0.31557 12486 ft 268 kts 259°
2026-05-06 12:08 51.19927 -0.34474 13360 ft 269 kts 258°
2026-05-06 12:08 51.19559 -0.37365 14230 ft 269 kts 258°
2026-05-06 12:08 51.19175 -0.40288 15083 ft 270 kts 258°
2026-05-06 12:08 51.18794 -0.43173 15898 ft 270 kts 258°
2026-05-06 12:09 51.18409 -0.46105 16705 ft 270 kts 258°
2026-05-06 12:09 51.18030 -0.48991 17405 ft 271 kts 257°
2026-05-06 12:09 51.17570 -0.51960 17839 ft 282 kts 254°
2026-05-06 12:09 51.16946 -0.55009 18255 ft 294 kts 251°
2026-05-06 12:10 51.16171 -0.58088 18559 ft 308 kts 249°
2026-05-06 12:10 51.15335 -0.61253 19061 ft 314 kts 249°
2026-05-06 12:10 51.14491 -0.64434 19739 ft 315 kts 249°
2026-05-06 12:10 51.13638 -0.67640 20422 ft 315 kts 248°
2026-05-06 12:11 51.12789 -0.70829 21072 ft 316 kts 248°
2026-05-06 12:11 51.11927 -0.74060 21710 ft 318 kts 248°
2026-05-06 12:11 51.11063 -0.77295 22335 ft 318 kts 248°
2026-05-06 12:11 51.10205 -0.80494 22926 ft 319 kts 248°
2026-05-06 12:12 51.09325 -0.83771 23512 ft 320 kts 248°
2026-05-06 12:12 51.08454 -0.87004 24072 ft 321 kts 248°
2026-05-06 12:12 51.07575 -0.90265 24617 ft 322 kts 248°
2026-05-06 12:12 51.06690 -0.93547 25147 ft 323 kts 248°
2026-05-06 12:13 51.05812 -0.96799 25616 ft 326 kts 248°
2026-05-06 12:13 51.04910 -1.00145 25887 ft 333 kts 248°
2026-05-06 12:13 51.03990 -1.03550 26264 ft 336 kts 248°
2026-05-06 12:13 51.03065 -1.06963 26707 ft 338 kts 248°
2026-05-06 12:14 51.02142 -1.10359 27121 ft 340 kts 248°
2026-05-06 12:14 51.01206 -1.13796 27515 ft 342 kts 248°
2026-05-06 12:14 51.00261 -1.17258 27901 ft 344 kts 248°
2026-05-06 12:14 50.99309 -1.20740 28281 ft 345 kts 248°
2026-05-06 12:15 50.98352 -1.24236 28657 ft 347 kts 248°
2026-05-06 12:15 50.97376 -1.27733 28946 ft 349 kts 246°
2026-05-06 12:15 50.94632 -1.34148 28988 ft 355 kts 233°
2026-05-06 12:16 50.90845 -1.39250 28993 ft 366 kts 222°
2026-05-06 12:16 50.86607 -1.43724 28991 ft 369 kts 221°
2026-05-06 12:17 50.82315 -1.48185 28991 ft 369 kts 221°
2026-05-06 12:17 50.78039 -1.52619 28991 ft 369 kts 221°
2026-05-06 12:18 50.73745 -1.57063 28991 ft 369 kts 221°
2026-05-06 12:18 50.69468 -1.61481 28991 ft 369 kts 221°
2026-05-06 12:19 50.65181 -1.65901 28994 ft 369 kts 221°
2026-05-06 12:19 50.60893 -1.70334 28992 ft 370 kts 221°
2026-05-06 12:20 50.56617 -1.74729 28991 ft 370 kts 221°
2026-05-06 12:20 50.52304 -1.79145 28991 ft 370 kts 221°
2026-05-06 12:21 50.48021 -1.83521 28991 ft 370 kts 221°
2026-05-06 12:21 50.43694 -1.87928 28991 ft 370 kts 221°
2026-05-06 12:22 50.39396 -1.92295 28991 ft 370 kts 221°
2026-05-06 12:22 50.35092 -1.96655 28991 ft 370 kts 221°
2026-05-06 12:23 50.30797 -2.00999 28991 ft 370 kts 221°
2026-05-06 12:23 50.26309 -2.05043 28991 ft 379 kts 213°
2026-05-06 12:24 50.21190 -2.07471 28992 ft 396 kts 201°
2026-05-06 12:24 50.15683 -2.08383 28992 ft 402 kts 196°
2026-05-06 12:25 50.10116 -2.09100 28991 ft 402 kts 196°
2026-05-06 12:25 50.04573 -2.09814 28991 ft 402 kts 196°
2026-05-06 12:26 49.98993 -2.10495 28992 ft 405 kts 194°
2026-05-06 12:26 49.93341 -2.10594 28991 ft 410 kts 192°
2026-05-06 12:27 49.87655 -2.10567 28992 ft 410 kts 192°
2026-05-06 12:27 49.81987 -2.10532 28991 ft 410 kts 192°
2026-05-06 12:28 49.76318 -2.10451 28991 ft 413 kts 189°
2026-05-06 12:28 49.70540 -2.09423 28991 ft 426 kts 181°
2026-05-06 12:29 49.67636 -2.08401 28666 ft 436 kts 177°
2026-05-06 12:29 49.64705 -2.07146 27922 ft 437 kts 176°
2026-05-06 12:29 49.61798 -2.05854 27269 ft 434 kts 175°
2026-05-06 12:29 49.58930 -2.04571 26754 ft 427 kts 175°
2026-05-06 12:30 49.56110 -2.03310 26399 ft 420 kts 175°
2026-05-06 12:30 49.53357 -2.02095 26041 ft 418 kts 175°
2026-05-06 12:30 49.50563 -2.00869 25614 ft 415 kts 175°
2026-05-06 12:30 49.47811 -1.99667 25156 ft 412 kts 175°
2026-05-06 12:31 49.45096 -1.98482 24685 ft 408 kts 175°
2026-05-06 12:31 49.42378 -1.97298 24206 ft 405 kts 175°
2026-05-06 12:31 49.39687 -1.96127 23725 ft 401 kts 175°
2026-05-06 12:31 49.37039 -1.94977 23251 ft 398 kts 174°
2026-05-06 12:32 49.34372 -1.93819 22771 ft 395 kts 174°
2026-05-06 12:32 49.31760 -1.92686 22302 ft 391 kts 174°
2026-05-06 12:32 49.29162 -1.91561 21834 ft 388 kts 174°
2026-05-06 12:32 49.26583 -1.90445 21370 ft 385 kts 174°
2026-05-06 12:33 49.24040 -1.89346 20911 ft 382 kts 174°
2026-05-06 12:33 49.21506 -1.88252 20455 ft 379 kts 174°
2026-05-06 12:33 49.18996 -1.87169 20022 ft 375 kts 173°
2026-05-06 12:33 49.16490 -1.86089 19602 ft 372 kts 173°
2026-05-06 12:34 49.14027 -1.85028 19192 ft 368 kts 173°
2026-05-06 12:34 49.11575 -1.83973 18784 ft 365 kts 173°
2026-05-06 12:34 49.09147 -1.82932 18381 ft 362 kts 173°
2026-05-06 12:34 49.06739 -1.81902 17977 ft 360 kts 172°
2026-05-06 12:35 49.04345 -1.80876 17574 ft 357 kts 172°
2026-05-06 12:35 49.01981 -1.79863 17172 ft 355 kts 172°
2026-05-06 12:35 48.99610 -1.78848 16768 ft 353 kts 171°
2026-05-06 12:35 48.97275 -1.77850 16366 ft 351 kts 171°
2026-05-06 12:36 48.94943 -1.76853 15964 ft 349 kts 171°
2026-05-06 12:36 48.92607 -1.75959 15550 ft 343 kts 176°
2026-05-06 12:36 48.90283 -1.75684 15140 ft 334 kts 187°
2026-05-06 12:36 48.88011 -1.76064 14656 ft 329 kts 195°
2026-05-06 12:37 48.85765 -1.76763 14239 ft 327 kts 197°
2026-05-06 12:37 48.83566 -1.77492 13850 ft 324 kts 197°
2026-05-06 12:37 48.81374 -1.78216 13440 ft 322 kts 197°
2026-05-06 12:37 48.79215 -1.78920 13024 ft 321 kts 197°
2026-05-06 12:38 48.77037 -1.79622 12600 ft 319 kts 197°
2026-05-06 12:38 48.74873 -1.80315 12182 ft 318 kts 196°
2026-05-06 12:38 48.72745 -1.80995 11974 ft 326 kts 196°
2026-05-06 12:38 48.70588 -1.81680 11788 ft 326 kts 196°
2026-05-06 12:39 48.68433 -1.82362 11043 ft 333 kts 196°
2026-05-06 12:39 48.66174 -1.83076 10454 ft 333 kts 196°
2026-05-06 12:39 48.63979 -1.83763 10258 ft 320 kts 196°
2026-05-06 12:39 48.61837 -1.84429 10133 ft 305 kts 196°
2026-05-06 12:40 48.59835 -1.85053 10038 ft 291 kts 197°
2026-05-06 12:40 48.57868 -1.85667 9826 ft 284 kts 197°
2026-05-06 12:40 48.55965 -1.86268 9472 ft 282 kts 197°
2026-05-06 12:40 48.54069 -1.86867 9148 ft 279 kts 197°
2026-05-06 12:41 48.52162 -1.87468 8797 ft 278 kts 197°
2026-05-06 12:41 48.50299 -1.88053 8478 ft 276 kts 196°
2026-05-06 12:41 48.48434 -1.88638 8144 ft 275 kts 196°
2026-05-06 12:41 48.46567 -1.89222 7824 ft 274 kts 196°
2026-05-06 12:42 48.44704 -1.89805 7503 ft 273 kts 195°
2026-05-06 12:42 48.42853 -1.90385 7174 ft 273 kts 195°
2026-05-06 12:42 48.41007 -1.90958 6867 ft 271 kts 195°
2026-05-06 12:42 48.39183 -1.91527 6559 ft 270 kts 195°
2026-05-06 12:43 48.37339 -1.92100 6251 ft 269 kts 195°
2026-05-06 12:43 48.35522 -1.92666 5948 ft 268 kts 195°
2026-05-06 12:43 48.33720 -1.93232 5638 ft 267 kts 194°
2026-05-06 12:43 48.32047 -1.93748 5354 ft 267 kts 194°
2026-05-06 12:44 48.30305 -1.94293 5063 ft 266 kts 194°
2026-05-06 12:44 48.28536 -1.94852 4769 ft 265 kts 194°
2026-05-06 12:44 48.26728 -1.95423 4470 ft 264 kts 193°
2026-05-06 12:44 48.24957 -1.95972 4182 ft 263 kts 192°
2026-05-06 12:45 48.23161 -1.96506 3891 ft 262 kts 192°
2026-05-06 12:45 48.21389 -1.97044 3606 ft 261 kts 193°
2026-05-06 12:45 48.17840 -1.98113 3060 ft 264 kts 191°
2026-05-06 12:46 48.16042 -1.98597 2997 ft 257 kts 190°
2026-05-06 12:46 48.14354 -1.99056 2959 ft 244 kts 192°
2026-05-06 12:46 48.12702 -1.99492 2761 ft 239 kts 186°
2026-05-06 12:46 48.11115 -1.99141 2596 ft 226 kts 146°
2026-05-06 12:47 48.10133 -1.97520 2531 ft 207 kts 109°
2026-05-06 12:47 48.09803 -1.95498 2495 ft 191 kts 95°
2026-05-06 12:47 48.09632 -1.93591 2455 ft 180 kts 94°
2026-05-06 12:47 48.09462 -1.91782 2319 ft 170 kts 95°
2026-05-06 12:48 48.09278 -1.90080 2129 ft 164 kts 96°
2026-05-06 12:48 48.09073 -1.88478 1974 ft 147 kts 98°
2026-05-06 12:48 48.08889 -1.87054 1733 ft 136 kts 96°
2026-05-06 12:48 48.08732 -1.85708 1452 ft 129 kts 96°
2026-05-06 12:49 48.08568 -1.84361 1280 ft 130 kts 97°
2026-05-06 12:49 48.08405 -1.83058 1144 ft 128 kts 98°
2026-05-06 12:49 48.08241 -1.81757 982 ft 128 kts 97°
2026-05-06 12:49 48.08072 -1.80442 825 ft 129 kts 98°
2026-05-06 12:50 48.07898 -1.79120 698 ft 129 kts 97°
2026-05-06 12:50 48.07754 -1.77811 572 ft 127 kts 97°
2026-05-06 12:50 48.07597 -1.76513 384 ft 126 kts 99°
2026-05-06 12:50 48.07420 -1.75247 221 ft 125 kts 95°
2026-05-06 12:51 48.07283 -1.73972 102 ft 118 kts 96°
2026-05-06 12:51 48.07162 -1.72947 137 ft 84 kts 98°
2026-05-06 12:51 48.07084 -1.72381 134 ft 20 kts 103°
2026-05-06 12:51 48.07062 -1.72196 132 ft 15 kts 91°
2026-05-06 12:52 48.07019 -1.72109 127 ft 11 kts 194°
2026-05-06 12:52 48.06943 -1.72162 127 ft 12 kts 234°
2026-05-06 12:52 48.06928 -1.72289 127 ft 12 kts 267°
2026-05-06 12:52 48.06937 -1.72386 125 ft 9 kts 279°
2026-05-06 12:53 48.06910 -1.72454 124 ft 9 kts 206°
2026-05-06 12:53 48.06892 -1.72464 124 ft 1 kts 205°
2026-05-06 12:53 48.06889 -1.72470 124 ft 1 kts 237°
2026-05-06 12:53 48.06883 -1.72487 124 ft 0 kts 237°
2026-05-06 12:54 48.06879 -1.72493 123 ft 1 kts 229°
2026-05-06 12:54 48.06869 -1.72512 123 ft 0 kts 229°